Everett, WA

2:13 AM PDT on October 18, 2017 (GMT -0700)
Snohomish County

Weather History for KPAE - December, 2012

Change the Weather History Date:

Saturday, December 29, 2012

  Actual Average Record
Temperature  
Mean Temperature 38 °F -  
Max Temperature 39 °F 42 °F 59 °F (1980)
Min Temperature 37 °F 30 °F 6 °F (1968)
Degree Days  
Heating Degree Days 27    
Moisture  
Dew Point 35 °F    
Average Humidity 87    
Maximum Humidity 93    
Minimum Humidity 73    
Precipitation  
Precipitation 0.15 in - - ()
Sea Level Pressure  
Sea Level Pressure 30.18 in    
Wind  
Wind Speed 2 mph (SE)    
Max Wind Speed 8 mph    
Max Gust Speed -    
Visibility 7 miles    
Events Rain    
Averages and records for this station are not official NWS values.
T = Trace of Precipitation, MM = Missing Value Source: NWS Daily Summary

Daily Weather History Graph

Daily Weather History Graph

Search for Another Location

Airport or City:

Trip Planner

Search our weather history database for the weather conditions in past years. The results will help you decide how hot, cold, wet, or windy it might be!

Date:

Astronomy

Dec. 29, 2012 Rise Set
Actual Time 7:58 AM PST 4:24 PM PST
Civil Twilight 7:22 AM PST 5:00 PM PST
Nautical Twilight 6:42 AM PST 5:40 PM PST
Astronomical Twilight 6:05 AM PST 6:18 PM PST
Moon 6:11 PM PST (12/29) 8:28 AM PST (12/29)
Length of Visible Light 9h 38m
Length of Day
8h 26m
Full, 98% of the Moon is Illuminated
Dec 29
Full
Jan 4
Last Quarter
Jan 11
New
Jan 18
First Quarter
Jan 26
Full

Hourly Weather History & Observations

Time (PST) Temp. Windchill Dew Point Humidity Pressure Visibility Wind Dir Wind Speed Gust Speed Precip Events Conditions
12:53 AM 39.9 °F - 32.0 °F 73% 30.16 in 10.0 mi Calm Calm - N/A   Overcast
1:53 AM 39.9 °F 37.8 °F 32.0 °F 73% 30.17 in 10.0 mi SSE 3.5 mph - N/A   Overcast
2:53 AM 39.0 °F - 32.0 °F 76% 30.18 in 10.0 mi Calm Calm - 0.00 in Rain Light Rain
3:53 AM 37.4 °F 34.9 °F 32.0 °F 81% 30.16 in 10.0 mi SE 3.5 mph - N/A Rain Light Rain
4:53 AM 37.9 °F - 30.9 °F 76% 30.17 in 10.0 mi Calm Calm - 0.00 in   Overcast
5:53 AM 37.0 °F 34.5 °F 32.0 °F 82% 30.18 in 10.0 mi Variable 3.5 mph - 0.00 in Rain Light Rain
6:53 AM 37.0 °F 34.5 °F 32.0 °F 82% 30.18 in 10.0 mi Variable 3.5 mph - 0.02 in Rain Light Rain
7:53 AM 37.0 °F 33.3 °F 32.0 °F 82% 30.18 in 9.0 mi SSE 4.6 mph - 0.01 in Rain Light Rain
8:43 AM 37.4 °F 34.9 °F 33.8 °F 87% 30.17 in 6.0 mi Variable 3.5 mph - 0.01 in Rain Light Rain
8:53 AM 37.0 °F 34.5 °F 33.1 °F 86% 30.19 in 7.0 mi Variable 3.5 mph - 0.01 in Rain Light Rain
9:53 AM 37.9 °F 35.5 °F 34.0 °F 86% 30.20 in 9.0 mi Variable 3.5 mph - 0.02 in Rain Light Rain
10:23 AM 37.4 °F 32.1 °F 33.8 °F 87% 30.18 in 9.0 mi ESE 6.9 mph - 0.00 in Rain Light Rain
10:53 AM 37.9 °F 33.5 °F 34.0 °F 86% 30.19 in 7.0 mi Variable 5.8 mph - 0.01 in Rain Light Rain
11:02 AM 37.4 °F 31.4 °F 33.8 °F 87% 30.17 in 8.0 mi ESE 8.1 mph - 0.00 in Rain Light Rain
11:30 AM 37.4 °F 33.8 °F 33.8 °F 87% 30.17 in 10.0 mi Variable 4.6 mph - 0.00 in Rain Light Rain
11:53 AM 37.0 °F - 34.0 °F 89% 30.18 in 6.0 mi Calm Calm - 0.01 in Rain Light Rain
12:17 PM 37.4 °F 34.9 °F 35.6 °F 93% 30.16 in 2.0 mi ESE 3.5 mph - 0.00 in   Overcast
12:53 PM 37.9 °F 35.5 °F 35.1 °F 89% 30.17 in 2.5 mi SE 3.5 mph - 0.01 in Rain Light Rain
12:55 PM 37.4 °F 33.8 °F 35.6 °F 93% 30.15 in 4.0 mi ESE 4.6 mph - 0.01 in Rain Light Rain
1:05 PM 37.4 °F 32.8 °F 35.6 °F 93% 30.15 in 3.0 mi ESE 5.8 mph - 0.01 in Rain Light Rain
1:12 PM 37.4 °F 32.1 °F 35.6 °F 93% 30.14 in 1.5 mi ESE 6.9 mph - 0.01 in Rain Light Rain
1:53 PM 37.9 °F 35.5 °F 35.1 °F 89% 30.16 in 6.0 mi Variable 3.5 mph - 0.03 in Rain Light Rain
2:53 PM 37.4 °F 33.8 °F 35.6 °F 93% 30.14 in 7.0 mi SSE 4.6 mph - N/A Rain Light Rain
3:00 PM 37.4 °F 32.8 °F 35.6 °F 93% 30.14 in 9.0 mi SSE 5.8 mph - 0.00 in   Overcast
3:53 PM 37.9 °F - 35.1 °F 89% 30.17 in 10.0 mi Calm Calm - 0.00 in   Overcast
4:53 PM 37.9 °F 35.5 °F 35.1 °F 89% 30.17 in 10.0 mi South 3.5 mph - N/A   Overcast
5:22 PM 37.4 °F - 35.6 °F 93% 30.16 in 10.0 mi Calm Calm - N/A   Overcast
5:53 PM 37.9 °F - 36.0 °F 93% 30.17 in 8.0 mi Calm Calm - 0.00 in Rain Light Rain
6:53 PM 39.0 °F - 36.0 °F 89% 30.18 in 8.0 mi Calm Calm - 0.01 in   Overcast
7:53 PM 37.9 °F - 36.0 °F 93% 30.19 in 4.0 mi Calm Calm - 0.02 in Rain Light Rain
8:12 PM 39.2 °F - 35.6 °F 87% 30.18 in 3.0 mi Calm Calm - 0.00 in Rain Light Rain
8:51 PM 39.2 °F - 35.6 °F 87% 30.18 in 6.0 mi Calm Calm - 0.00 in   Overcast
8:53 PM 39.0 °F - 36.0 °F 89% 30.20 in 6.0 mi Calm Calm - 0.00 in   Overcast
9:01 PM 37.4 °F - 35.6 °F 93% 30.19 in 6.0 mi Calm Calm - N/A   Overcast
9:15 PM 39.2 °F - 35.6 °F 87% 30.19 in 10.0 mi Calm Calm - N/A   Overcast
9:53 PM 37.9 °F - 36.0 °F 93% 30.22 in 6.0 mi Calm Calm - N/A   Overcast
10:01 PM 37.4 °F - 35.6 °F 93% 30.21 in 6.0 mi Calm Calm - N/A   Overcast
10:50 PM 39.2 °F - 35.6 °F 87% 30.21 in 6.0 mi Calm Calm - N/A   Overcast
10:53 PM 39.0 °F 36.8 °F 36.0 °F 89% 30.23 in 6.0 mi Variable 3.5 mph - N/A   Overcast
11:34 PM 39.2 °F 37.0 °F 35.6 °F 87% 30.22 in 6.0 mi ESE 3.5 mph - N/A   Overcast
11:53 PM 37.9 °F - 36.0 °F 93% 30.24 in 4.0 mi Calm Calm - N/A   Overcast